TimeAKST,TemperatureF,Dew PointF,Humidity,Sea Level PressureIn,VisibilityMPH,Wind Direction,Wind SpeedMPH,Gust SpeedMPH,PrecipitationIn,Events,Conditions,WindDirDegrees,DateUTC
12:16 AM,-14.8,-25.6,58,29.52,10.0,North,3.5,-,N/A,,Mostly Cloudy,10,2012-12-30 09:16:00
12:36 AM,-14.8,-23.8,64,29.51,10.0,NNE,4.6,-,N/A,,Mostly Cloudy,20,2012-12-30 09:36:00
12:56 AM,-14.8,-23.8,64,29.51,10.0,NNE,5.8,-,N/A,,Overcast,20,2012-12-30 09:56:00
1:16 AM,-13.0,-22.0,64,29.51,10.0,NNE,6.9,-,N/A,,Overcast,20,2012-12-30 10:16:00
1:36 AM,-13.0,-22.0,64,29.50,10.0,NNE,5.8,-,N/A,,Overcast,20,2012-12-30 10:36:00
1:56 AM,-13.0,-22.0,64,29.50,10.0,North,6.9,-,N/A,,Overcast,10,2012-12-30 10:56:00
2:16 AM,-13.0,-23.8,59,29.49,10.0,NNE,6.9,-,N/A,,Overcast,30,2012-12-30 11:16:00
2:36 AM,-14.8,-23.8,64,29.49,10.0,NNE,5.8,-,N/A,,Scattered Clouds,30,2012-12-30 11:36:00
3:16 AM,-14.8,-23.8,64,29.48,10.0,NNE,6.9,-,N/A,,Clear,30,2012-12-30 12:16:00
3:36 AM,-14.8,-25.6,58,29.48,10.0,NNE,10.4,-,N/A,,Mostly Cloudy,30,2012-12-30 12:36:00
3:56 AM,-16.6,-27.4,58,29.48,10.0,NNE,8.1,-,N/A,,Mostly Cloudy,30,2012-12-30 12:56:00
4:16 AM,-16.6,-27.4,58,29.48,10.0,NNE,8.1,-,N/A,,Overcast,20,2012-12-30 13:16:00
4:36 AM,-16.6,-27.4,58,29.48,10.0,NNE,9.2,-,N/A,,Mostly Cloudy,20,2012-12-30 13:36:00
4:56 AM,-18.4,-27.4,63,29.48,10.0,North,10.4,-,N/A,,Clear,10,2012-12-30 13:56:00
5:16 AM,-18.4,-29.2,58,29.48,10.0,North,8.1,-,N/A,,Clear,10,2012-12-30 14:16:00
5:36 AM,-20.2,-9999,N/A,29.48,10.0,North,6.9,-,N/A,,Clear,10,2012-12-30 14:36:00
5:56 AM,-20.2,-9999,N/A,29.46,10.0,NNE,8.1,-,N/A,,Clear,20,2012-12-30 14:56:00
6:16 AM,-20.2,-9999,N/A,29.46,10.0,NNE,8.1,-,N/A,,Clear,20,2012-12-30 15:16:00
6:36 AM,-20.2,-9999,N/A,29.45,10.0,NNE,9.2,-,N/A,,Clear,20,2012-12-30 15:36:00
6:56 AM,-20.2,-9999,N/A,29.45,6.0,NNE,8.1,-,N/A,,Clear,20,2012-12-30 15:56:00
7:16 AM,-20.2,-9999,N/A,29.46,7.0,North,9.2,-,N/A,,Clear,10,2012-12-30 16:16:00
7:36 AM,-20.2,-9999,N/A,29.45,5.0,NNE,10.4,16.1,N/A,,Clear,20,2012-12-30 16:36:00
7:56 AM,-20.2,-9999,N/A,29.44,5.0,NNE,12.7,-,N/A,,Clear,20,2012-12-30 16:56:00
8:16 AM,-18.4,-27.4,63,29.44,4.0,NNE,11.5,-,N/A,,Clear,20,2012-12-30 17:16:00
8:36 AM,-20.2,-9999,N/A,29.45,7.0,North,9.2,-,N/A,,Clear,10,2012-12-30 17:36:00
8:56 AM,-20.2,-9999,N/A,29.45,9.0,North,12.7,-,N/A,,Scattered Clouds,10,2012-12-30 17:56:00
9:16 AM,-20.2,-9999,N/A,29.44,5.0,North,11.5,16.1,N/A,,Mostly Cloudy,10,2012-12-30 18:16:00
9:36 AM,-22.0,-9999,N/A,29.46,10.0,NNE,11.5,-,N/A,,Mostly Cloudy,20,2012-12-30 18:36:00
9:56 AM,-22.0,-9999,N/A,29.46,5.0,NNE,11.5,-,N/A,,Overcast,30,2012-12-30 18:56:00
10:16 AM,-22.0,-9999,N/A,29.46,8.0,NNE,11.5,-,N/A,,Scattered Clouds,20,2012-12-30 19:16:00
10:36 AM,-22.0,-9999,N/A,29.44,6.0,NNE,11.5,-,N/A,,Clear,30,2012-12-30 19:36:00
10:56 AM,-20.2,-9999,N/A,29.44,5.0,NNE,10.4,-,N/A,,Clear,30,2012-12-30 19:56:00
11:16 AM,-22.0,-9999,N/A,29.43,4.0,NNE,10.4,-,N/A,,Clear,20,2012-12-30 20:16:00
11:36 AM,-22.0,-9999,N/A,29.43,7.0,North,11.5,-,N/A,,Clear,10,2012-12-30 20:36:00
11:56 AM,-22.0,-9999,N/A,29.45,4.0,NNE,10.4,-,N/A,,Scattered Clouds,20,2012-12-30 20:56:00
12:16 PM,-20.2,-29.2,63,29.46,5.0,North,10.4,-,N/A,,Overcast,10,2012-12-30 21:16:00
12:36 PM,-20.2,-27.4,69,29.45,3.0,NNE,11.5,-,N/A,,Overcast,20,2012-12-30 21:36:00
12:56 PM,-20.2,-29.2,63,29.44,7.0,NNE,12.7,-,N/A,,Overcast,30,2012-12-30 21:56:00
1:16 PM,-20.2,-22.0,91,29.43,7.0,NNE,12.7,17.3,N/A,,Overcast,30,2012-12-30 22:16:00
1:36 PM,-18.4,-27.4,63,29.43,4.0,NNE,16.1,-,N/A,,Overcast,20,2012-12-30 22:36:00
1:56 PM,-18.4,-29.2,58,29.43,2.0,NE,13.8,17.3,N/A,,Overcast,40,2012-12-30 22:56:00
2:16 PM,-18.4,-29.2,58,29.43,1.0,NNE,15.0,20.7,N/A,,Overcast,30,2012-12-30 23:16:00
2:36 PM,-18.4,-29.2,58,29.43,1.2,NNE,13.8,20.7,N/A,,Overcast,20,2012-12-30 23:36:00
2:56 PM,-18.4,-27.4,63,29.43,1.5,NNE,13.8,18.4,N/A,,Overcast,20,2012-12-30 23:56:00
3:16 PM,-18.4,-27.4,63,29.42,1.2,NNE,13.8,18.4,N/A,,Overcast,30,2012-12-31 00:16:00
3:36 PM,-18.4,-27.4,63,29.41,1.8,NNE,13.8,19.6,N/A,,Overcast,30,2012-12-31 00:36:00
3:56 PM,-18.4,-27.4,63,29.41,2.0,NNE,13.8,19.6,N/A,,Overcast,20,2012-12-31 00:56:00
4:16 PM,-18.4,-25.6,70,29.41,2.0,NNE,16.1,20.7,N/A,,Overcast,30,2012-12-31 01:16:00
4:36 PM,-16.6,-27.4,58,29.41,2.5,NE,12.7,19.6,N/A,,Overcast,40,2012-12-31 01:36:00
4:56 PM,-18.4,-27.4,63,29.40,2.0,NNE,17.3,21.9,N/A,,Overcast,30,2012-12-31 01:56:00
5:16 PM,-18.4,-27.4,63,29.40,3.0,NNE,16.1,20.7,N/A,,Overcast,30,2012-12-31 02:16:00
5:36 PM,-18.4,-27.4,63,29.40,2.5,NNE,13.8,20.7,N/A,,Overcast,30,2012-12-31 02:36:00
5:56 PM,-18.4,-27.4,63,29.39,2.5,NNE,15.0,20.7,N/A,,Overcast,30,2012-12-31 02:56:00
6:16 PM,-18.4,-27.4,63,29.40,2.5,NNE,15.0,-,N/A,,Overcast,30,2012-12-31 03:16:00
6:36 PM,-18.4,-27.4,63,29.40,3.0,NNE,13.8,19.6,N/A,,Overcast,30,2012-12-31 03:36:00
6:56 PM,-18.4,-29.2,58,29.40,3.0,NNE,13.8,-,N/A,,Overcast,30,2012-12-31 03:56:00
7:16 PM,-18.4,-29.2,58,29.40,6.0,NNE,13.8,-,N/A,,Scattered Clouds,30,2012-12-31 04:16:00
7:36 PM,-18.4,-27.4,63,29.39,9.0,NNE,15.0,-,N/A,,Scattered Clouds,30,2012-12-31 04:36:00
7:56 PM,-18.4,-29.2,58,29.39,10.0,NNE,11.5,-,N/A,,Scattered Clouds,30,2012-12-31 04:56:00
8:16 PM,-18.4,-29.2,58,29.38,10.0,NNE,12.7,-,N/A,,Partly Cloudy,20,2012-12-31 05:16:00
8:36 PM,-20.2,-29.2,63,29.36,10.0,NNE,13.8,-,N/A,,Clear,20,2012-12-31 05:36:00
8:56 PM,-20.2,-29.2,63,29.38,10.0,NNE,12.7,-,N/A,,Clear,20,2012-12-31 05:56:00
9:16 PM,-20.2,-29.2,63,29.38,7.0,NNE,10.4,-,N/A,,Clear,20,2012-12-31 06:16:00
9:36 PM,-20.2,-29.2,63,29.37,8.0,NNE,11.5,17.3,N/A,,Clear,30,2012-12-31 06:36:00
9:56 PM,-20.2,-29.2,63,29.37,6.0,NNE,12.7,-,N/A,,Partly Cloudy,30,2012-12-31 06:56:00
10:16 PM,-20.2,-29.2,63,29.38,4.0,NNE,10.4,-,N/A,,Scattered Clouds,20,2012-12-31 07:16:00
10:36 PM,-20.2,-9999,N/A,29.38,5.0,NNE,10.4,-,N/A,,Clear,30,2012-12-31 07:36:00
10:56 PM,-20.2,-29.2,63,29.38,6.0,NNE,12.7,17.3,N/A,,Scattered Clouds,20,2012-12-31 07:56:00
11:16 PM,-20.2,-29.2,63,29.39,5.0,NNE,10.4,-,N/A,,Mostly Cloudy,20,2012-12-31 08:16:00
11:36 PM,-18.4,-29.2,58,29.40,6.0,NNE,12.7,-,N/A,,Overcast,30,2012-12-31 08:36:00
11:56 PM,-18.4,-27.4,63,29.41,6.0,NNE,11.5,19.6,N/A,,Overcast,30,2012-12-31 08:56:00